Location: Unspecified
(51.5147°N, 7.4673°E)
Time: 18:28:13
(UTC+01:00)

Vanguard 1 - Pass Details

Date: 26 February 2026
Orbit: 653 x 3818 km, 34.2° (Epoch: 5 March)

Event Time Altitude Azimuth Distance (km) Brightness Sun altitude
Rises 21:13:51 0° 265° (W) 6,297 15.0 -29.5°
Reaches altitude 10° 21:22:36 10° 238° (WSW) 6,036 14.4 -30.7°
Maximum altitude 21:27:50 12° 222° (SW) 6,229 14.2 -31.4°
Drops below altitude 10° 21:33:33 10° 206° (SSW) 6,660 14.2 -32.2°
Sets 21:45:26 0° 181° (S) 7,944 14.4 -33.7°
